This is the latest recevied weather packets stored in our database for station/object EA7AIS-10. If no packets are shown the sender has not sent any weather packets the latest 10 day(s).
| Time | Temp. | Humidity | Pressure | Rain* | Wind** | Luminosity | Snow |
|---|---|---|---|---|---|---|---|
| 1777715179 | 18.89° C | 87% | 1016.5 hPa | - | - | - | - |
| 1777714279 | 18.89° C | 89% | 1016.6 hPa | - | - | - | - |
| 1777713379 | 18.89° C | 90% | 1016.6 hPa | - | - | - | - |
| 1777712479 | 18.89° C | 89% | 1016.4 hPa | - | - | - | - |
| 1777711579 | 18.89° C | 89% | 1016.4 hPa | - | - | - | - |
| 1777710679 | 18.89° C | 91% | 1016.3 hPa | - | - | - | - |
| 1777709779 | 18.33° C | 91% | 1016.4 hPa | - | - | - | - |
| 1777708879 | 18.33° C | 92% | 1016.3 hPa | - | - | - | - |
| 1777707979 | 18.33° C | 93% | 1016.1 hPa | - | - | - | - |
| 1777707079 | 18.33° C | 93% | 1016.2 hPa | - | - | - | - |
| 1777706179 | 17.78° C | 94% | 1016 hPa | - | - | - | - |
| 1777705278 | 17.78° C | 95% | 1016 hPa | - | - | - | - |
| 1777704378 | 17.78° C | 95% | 1015.8 hPa | - | - | - | - |
| 1777703479 | 17.78° C | 94% | 1015.9 hPa | - | - | - | - |
| 1777702578 | 17.78° C | 95% | 1015.9 hPa | - | - | - | - |
| 1777701678 | 17.78° C | 94% | 1015.6 hPa | - | - | - | - |
| 1777700778 | 17.78° C | 95% | 1015.7 hPa | - | - | - | - |
| 1777699878 | 17.78° C | 96% | 1015.6 hPa | - | - | - | - |
| 1777698978 | 17.78° C | 96% | 1015.7 hPa | - | - | - | - |
| 1777698079 | 17.78° C | 96% | 1015.7 hPa | - | - | - | - |
| 1777697178 | 17.78° C | 94% | 1015.6 hPa | - | - | - | - |
| 1777696278 | 17.78° C | 93% | 1015.5 hPa | - | - | - | - |
| 1777695377 | 18.33° C | 93% | 1015.6 hPa | - | - | - | - |
| 1777694477 | 17.78° C | 91% | 1015.5 hPa | - | - | - | - |
| 1777693577 | 17.78° C | 88% | 1015.6 hPa | - | - | - | - |
* Rain since midnight (hover to see other rain measurements)
** Current wind speed in m/s (hover to see current wind gust speed)